This is the latest recevied weather packets stored in our database for station/object W9PEM-13. If no packets are shown the sender has not sent any weather packets the latest 10 day(s).
| Time | Temp. | Humidity | Pressure | Rain* | Wind** | Luminosity | Snow |
|---|---|---|---|---|---|---|---|
| 1777962812 | 10° C | 52% | 973 hPa | 0 mm | - | 0 W/m² | - |
| 1777962211 | 10.56° C | 52% | 972.9 hPa | 0 mm | - | 0 W/m² | - |
| 1777962121 | 10.56° C | 51% | 972.7 hPa | 0 mm | - | 0 W/m² | - |
| 1777961611 | 10.56° C | 51% | 972.7 hPa | 0 mm | - | 0 W/m² | - |
| 1777961011 | 11.11° C | 50% | 972.8 hPa | 0 mm | - | 0 W/m² | - |
| 1777960411 | 11.11° C | 49% | 972.7 hPa | 0 mm | - | 0 W/m² | - |
| 1777959811 | 11.67° C | 50% | 972.5 hPa | 0 mm | - | 0 W/m² | - |
| 1777959211 | 11.67° C | 48% | 972.3 hPa | 0 mm | - | 0 W/m² | - |
| 1777958611 | 11.67° C | 49% | 972.1 hPa | 0 mm | - | 0 W/m² | - |
| 1777958013 | 11.67° C | 50% | 971.9 hPa | 0 mm | - | 0 W/m² | - |
| 1777957411 | 12.22° C | 49% | 971.5 hPa | 0 mm | - | 0 W/m² | - |
| 1777956810 | 12.78° C | 47% | 971.4 hPa | 0 mm | - | 0 W/m² | - |
| 1777956210 | 13.33° C | 44% | 971.1 hPa | 0 mm | - | 0 W/m² | - |
| 1777955611 | 13.89° C | 43% | 970.9 hPa | 0 mm | - | 0 W/m² | - |
| 1777955012 | 14.44° C | 40% | 970.8 hPa | 0 mm | - | 0 W/m² | - |
| 1777954411 | 14.44° C | 40% | 970.6 hPa | 0 mm | - | 0 W/m² | - |
| 1777952191 | 15.56° C | 38% | 970.5 hPa | 0 mm | - | 0 W/m² | - |
| 1777951591 | 16.11° C | 37% | 970.2 hPa | 0 mm | - | 0 W/m² | - |
| 1777950992 | 16.11° C | 38% | 970 hPa | 0 mm | - | 0 W/m² | - |
| 1777950392 | 16.67° C | 37% | 969.6 hPa | 0 mm | - | 0 W/m² | - |
| 1777949792 | 16.67° C | 37% | 969.3 hPa | 0 mm | - | 0 W/m² | - |
| 1777949192 | 16.67° C | 37% | 969.5 hPa | 0 mm | - | 0 W/m² | - |
| 1777948592 | 17.22° C | 39% | 969.5 hPa | 0 mm | - | 0 W/m² | - |
| 1777947991 | 17.22° C | 39% | 969.3 hPa | 0 mm | - | 0 W/m² | - |
| 1777947391 | 17.22° C | 40% | 969.2 hPa | 0 mm | - | 0 W/m² | - |
* Rain latest hour (hover to see other rain measurements)
** Current wind speed in m/s (hover to see current wind gust speed)